Погода во Фрибуре

Швейцария     46°48′24″N   7°09′40″E
темп.,
°C
ветер,
м/с
пор.,
м/с
влажн.,
%
обл.,
%
осадки,
мм/ч
давл.,
гПа
погр.,
м
26 февраля, пт
пт2601:00+6ююв22570 0.0 103224
04:00+5ююв226050 0.0 103122
07:00+5ююв226365 0.0 103223
10:00+9зсз115898 0.0 1030162
13:00+12сз225181 0.0 1029700
16:00+11ссз2259100 0.0 1028594
19:00+7всв1283100 0.0 102925
22:00+6св259695 0.1 1030301
27 февраля, сб
сб2701:00+6св379797 0.1 1031399
04:00+4св599698 0.4 1030457
07:00+3св599599 0.4 1030439
10:00+3св5889100 0.0 1030498
13:00+4св6984100 0.0 1030627
16:00+4всв5883100 0.0 1029634
19:00+3всв588799 0.0 1030487
22:00+2всв478893 0.0 1031344
28 февраля, вс
вс2801:00−1всв239568 0.0 1031109
04:00−1всв019334 0.0 103155
07:00−2в019328 0.0 103121
10:00+3с117311 0.0 1031258
13:00+7с21656 0.0 1030450
16:00+8с22700 0.0 1028332
19:00+3юв11900 0.0 102922
22:00+2ююв11860 0.0 103022
1 марта, пн
пн101:00+1ю11780 0.0 103122
04:00+1ююв11740 0.0 103022
07:00+1ю11690 0.0 103022
10:00+7ссз11550 0.0 1030173
13:00+10с21510 0.0 1028498
16:00+10с225542 0.0 1028430
19:00+4юв117728 0.0 103022
22:00+3ю226119 0.0 103124
2 марта, вт
вт201:00+3ю225538 0.0 103224
04:00+2ю125299 0.0 103122
07:00+2ююв124886 0.0 103222
10:00+8сз114310 0.0 1032154
13:00+12ссз214214 0.0 1031419
16:00+11с115142 0.0 1031321
19:00+5ююв227121 0.0 103322
22:00+4ююв225014 0.0 103424